Time,TemperatureF,DewpointF,PressureIn,WindDirection,WindDirectionDegrees,WindSpeedMPH,WindSpeedGustMPH,Humidity,HourlyPrecipIn,Conditions,Clouds,dailyrainin,SoftwareType,DateUTC
2013-08-05 00:00:00,76.0,52.2,29.94,NE,51,0.0,6.6,44,0.00,,---,0.00,VWS V12.07,2013-08-05 07:00:00,
2013-08-05 00:02:00,75.6,52.1,29.94,NE,51,0.0,6.6,44,0.00,,---,0.00,VWS V12.07,2013-08-05 07:02:00,
2013-08-05 00:07:00,75.5,52.9,29.94,NE,51,0.0,6.6,45,0.00,,---,0.00,VWS V12.07,2013-08-05 07:07:00,
2013-08-05 00:12:00,75.1,52.8,29.93,NE,51,0.0,6.6,46,0.00,,---,0.00,VWS V12.07,2013-08-05 07:12:00,
2013-08-05 00:17:00,74.6,52.4,29.93,NE,51,0.0,6.6,46,0.00,,---,0.00,VWS V12.07,2013-08-05 07:17:00,
2013-08-05 00:22:00,74.3,52.0,29.93,NE,51,0.0,6.6,46,0.00,,---,0.00,VWS V12.07,2013-08-05 07:22:00,
2013-08-05 00:27:00,74.1,51.9,29.93,NE,51,0.0,6.6,46,0.00,,---,0.00,VWS V12.07,2013-08-05 07:27:00,
2013-08-05 00:30:00,74.2,51.8,29.93,NE,51,0.0,0.0,46,0.00,,---,0.00,VWS V12.07,2013-08-05 07:30:00,
2013-08-05 00:32:00,74.0,51.5,29.93,NE,51,0.0,6.6,45,0.00,,---,0.00,VWS V12.07,2013-08-05 07:32:00,
2013-08-05 00:37:00,74.1,51.7,29.93,NE,51,0.0,6.6,45,0.00,,---,0.00,VWS V12.07,2013-08-05 07:37:00,
2013-08-05 00:42:00,74.2,51.8,29.93,NE,51,0.0,6.6,45,0.00,,---,0.00,VWS V12.07,2013-08-05 07:42:00,
2013-08-05 00:47:00,74.2,52.2,29.93,NE,51,0.0,6.6,46,0.00,,---,0.00,VWS V12.07,2013-08-05 07:47:00,
2013-08-05 00:52:00,74.5,52.8,29.93,NE,51,0.0,0.0,47,0.00,,---,0.00,VWS V12.07,2013-08-05 07:52:00,
2013-08-05 00:57:00,74.5,53.3,29.93,NE,51,0.0,0.0,48,0.00,,---,0.00,VWS V12.07,2013-08-05 07:57:00,
2013-08-05 01:00:00,74.3,53.2,29.92,NE,51,0.0,0.0,48,0.00,,---,0.00,VWS V12.07,2013-08-05 08:00:00,
2013-08-05 01:02:00,74.5,53.5,29.92,NE,51,0.0,0.0,48,0.00,,---,0.00,VWS V12.07,2013-08-05 08:02:00,
2013-08-05 01:07:00,74.5,53.8,29.92,NE,51,0.0,0.0,48,0.00,,---,0.00,VWS V12.07,2013-08-05 08:07:00,
2013-08-05 01:12:00,74.6,54.0,29.92,NE,51,0.0,0.0,49,0.00,,---,0.00,VWS V12.07,2013-08-05 08:12:00,
2013-08-05 01:17:00,74.5,54.1,29.92,NE,51,0.0,0.0,49,0.00,,---,0.00,VWS V12.07,2013-08-05 08:17:00,
2013-08-05 01:22:00,74.1,54.0,29.92,NE,51,0.0,0.0,49,0.00,,---,0.00,VWS V12.07,2013-08-05 08:22:00,
2013-08-05 01:28:00,74.0,54.0,29.93,NE,51,0.0,0.0,50,0.00,,---,0.00,VWS V12.07,2013-08-05 08:28:00,
2013-08-05 01:30:00,73.8,53.8,29.93,NE,51,0.0,0.0,50,0.00,,---,0.00,VWS V12.07,2013-08-05 08:30:00,
2013-08-05 01:33:00,73.7,53.7,29.93,NE,51,0.0,0.0,50,0.00,,---,0.00,VWS V12.07,2013-08-05 08:33:00,
2013-08-05 01:38:00,73.4,53.0,29.93,NE,51,0.0,0.0,49,0.00,,---,0.00,VWS V12.07,2013-08-05 08:38:00,
2013-08-05 01:43:00,72.9,52.1,29.92,NE,51,0.0,0.0,48,0.00,,---,0.00,VWS V12.07,2013-08-05 08:43:00,
2013-08-05 01:49:00,72.6,51.6,29.92,NE,51,0.0,0.0,48,0.00,,---,0.00,VWS V12.07,2013-08-05 08:49:00,
2013-08-05 01:54:00,72.4,51.5,29.92,NE,51,0.0,0.0,48,0.00,,---,0.00,VWS V12.07,2013-08-05 08:54:00,
2013-08-05 01:59:00,72.3,51.6,29.92,NE,51,0.0,0.0,48,0.00,,---,0.00,VWS V12.07,2013-08-05 08:59:00,
2013-08-05 02:04:00,72.0,51.7,29.92,NE,51,0.0,0.0,49,0.00,,---,0.00,VWS V12.07,2013-08-05 09:04:00,
2013-08-05 02:10:00,71.6,51.5,29.92,NE,51,0.0,0.0,49,0.00,,---,0.00,VWS V12.07,2013-08-05 09:10:00,
2013-08-05 02:15:00,71.4,51.9,29.92,NE,51,0.0,0.0,50,0.00,,---,0.00,VWS V12.07,2013-08-05 09:15:00,
2013-08-05 02:20:00,71.3,51.7,29.92,NE,51,0.0,0.0,50,0.00,,---,0.00,VWS V12.07,2013-08-05 09:20:00,
2013-08-05 02:25:00,71.2,51.8,29.92,NE,51,0.0,0.0,50,0.00,,---,0.00,VWS V12.07,2013-08-05 09:25:00,
2013-08-05 02:30:00,71.1,51.9,29.92,NE,51,0.0,0.0,51,0.00,,---,0.00,VWS V12.07,2013-08-05 09:30:00,
2013-08-05 02:35:00,71.2,52.0,29.92,NE,51,0.0,0.0,51,0.00,,---,0.00,VWS V12.07,2013-08-05 09:35:00,
2013-08-05 02:40:00,71.5,52.1,29.92,NE,51,0.0,0.0,50,0.00,,---,0.00,VWS V12.07,2013-08-05 09:40:00,
2013-08-05 02:46:00,71.2,51.8,29.92,NE,51,0.0,0.0,50,0.00,,---,0.00,VWS V12.07,2013-08-05 09:46:00,
2013-08-05 02:51:00,71.0,52.0,29.92,NE,51,0.0,0.0,51,0.00,,---,0.00,VWS V12.07,2013-08-05 09:51:00,
2013-08-05 02:56:00,71.0,52.6,29.92,NE,51,0.0,0.0,52,0.00,,---,0.00,VWS V12.07,2013-08-05 09:56:00,
2013-08-05 03:00:00,71.1,52.8,29.92,NE,51,0.0,0.0,52,0.00,,---,0.00,VWS V12.07,2013-08-05 10:00:00,
2013-08-05 03:01:00,71.1,52.9,29.92,NE,51,0.0,0.0,53,0.00,,---,0.00,VWS V12.07,2013-08-05 10:01:00,
2013-08-05 03:06:00,71.3,53.5,29.92,NE,51,0.0,0.0,53,0.00,,---,0.00,VWS V12.07,2013-08-05 10:06:00,
2013-08-05 03:12:00,71.3,53.7,29.93,NE,51,0.0,0.0,54,0.00,,---,0.00,VWS V12.07,2013-08-05 10:12:00,
2013-08-05 03:17:00,71.4,54.1,29.92,NE,51,0.0,0.0,54,0.00,,---,0.00,VWS V12.07,2013-08-05 10:17:00,
2013-08-05 03:22:00,71.4,54.2,29.93,NE,51,0.0,0.0,55,0.00,,---,0.00,VWS V12.07,2013-08-05 10:22:00,
2013-08-05 03:27:00,71.1,54.2,29.93,NE,51,0.0,0.0,55,0.00,,---,0.00,VWS V12.07,2013-08-05 10:27:00,
2013-08-05 03:30:00,71.3,54.4,29.93,NE,51,0.0,0.0,55,0.00,,---,0.00,VWS V12.07,2013-08-05 10:30:00,
2013-08-05 03:33:00,71.1,54.2,29.93,NE,51,0.0,0.0,55,0.00,,---,0.00,VWS V12.07,2013-08-05 10:33:00,
2013-08-05 03:38:00,71.2,53.8,29.92,NE,51,0.0,0.0,54,0.00,,---,0.00,VWS V12.07,2013-08-05 10:38:00,
2013-08-05 03:44:00,70.9,53.5,29.93,NE,51,0.0,0.0,54,0.00,,---,0.00,VWS V12.07,2013-08-05 10:44:00,
2013-08-05 03:49:00,70.9,53.3,29.93,NE,51,0.0,0.0,54,0.00,,---,0.00,VWS V12.07,2013-08-05 10:49:00,
2013-08-05 03:54:00,70.7,53.0,29.93,NE,51,0.0,0.0,53,0.00,,---,0.00,VWS V12.07,2013-08-05 10:54:00,
2013-08-05 04:00:00,70.5,52.1,29.93,NE,51,0.0,0.0,52,0.00,,---,0.00,VWS V12.07,2013-08-05 11:00:00,
2013-08-05 04:05:00,70.3,51.7,29.93,NE,51,0.0,0.0,52,0.00,,---,0.00,VWS V12.07,2013-08-05 11:05:00,
2013-08-05 04:09:00,70.1,51.9,29.93,NE,51,0.0,0.0,52,0.00,,---,0.00,VWS V12.07,2013-08-05 11:09:00,
2013-08-05 04:15:00,70.0,52.8,29.93,NE,51,0.0,0.0,54,0.00,,---,0.00,VWS V12.07,2013-08-05 11:15:00,
2013-08-05 04:20:00,70.2,53.4,29.93,NE,51,0.0,0.0,55,0.00,,---,0.00,VWS V12.07,2013-08-05 11:20:00,
2013-08-05 04:25:00,70.1,53.5,29.93,NE,51,0.0,0.0,56,0.00,,---,0.00,VWS V12.07,2013-08-05 11:25:00,
2013-08-05 04:30:00,70.2,53.8,29.93,NE,51,0.0,0.0,56,0.00,,---,0.00,VWS V12.07,2013-08-05 11:30:00,
2013-08-05 04:35:00,70.0,53.7,29.93,NE,51,0.0,0.0,56,0.00,,---,0.00,VWS V12.07,2013-08-05 11:35:00,
2013-08-05 04:40:00,70.0,53.7,29.93,NE,51,0.0,0.0,56,0.00,,---,0.00,VWS V12.07,2013-08-05 11:40:00,
2013-08-05 04:45:00,69.8,53.5,29.94,NE,51,0.0,0.0,56,0.00,,---,0.00,VWS V12.07,2013-08-05 11:45:00,
2013-08-05 04:51:00,69.8,53.6,29.94,NE,51,0.0,0.0,56,0.00,,---,0.00,VWS V12.07,2013-08-05 11:51:00,
2013-08-05 04:57:00,69.8,53.8,29.94,NE,51,0.0,0.0,57,0.00,,---,0.00,VWS V12.07,2013-08-05 11:57:00,
2013-08-05 05:02:00,69.9,54.0,29.94,NE,51,0.0,0.0,57,0.00,,---,0.00,VWS V12.07,2013-08-05 12:02:00,
2013-08-05 05:06:00,69.7,53.8,29.94,NE,51,0.0,0.0,57,0.00,,---,0.00,VWS V12.07,2013-08-05 12:06:00,
2013-08-05 05:12:00,69.9,54.0,29.94,NW,304,0.0,2.9,57,0.00,,---,0.00,VWS V12.07,2013-08-05 12:12:00,
2013-08-05 05:17:00,69.8,54.0,29.95,NW,304,0.0,2.9,57,0.00,,---,0.00,VWS V12.07,2013-08-05 12:17:00,
2013-08-05 05:22:00,69.8,53.9,29.95,NW,304,0.0,2.9,57,0.00,,---,0.00,VWS V12.07,2013-08-05 12:22:00,
2013-08-05 05:27:00,69.7,53.8,29.95,NW,304,0.0,2.9,57,0.00,,---,0.00,VWS V12.07,2013-08-05 12:27:00,
2013-08-05 05:30:00,69.7,53.8,29.95,NW,304,0.0,2.9,57,0.00,,---,0.00,VWS V12.07,2013-08-05 12:30:00,
2013-08-05 05:32:00,69.6,53.7,29.95,NW,304,0.0,2.9,57,0.00,,---,0.00,VWS V12.07,2013-08-05 12:32:00,
2013-08-05 05:37:00,69.6,53.6,29.95,NW,304,0.0,2.9,57,0.00,,---,0.00,VWS V12.07,2013-08-05 12:37:00,
2013-08-05 05:42:00,69.5,53.6,29.95,NW,304,0.0,2.9,57,0.00,,---,0.00,VWS V12.07,2013-08-05 12:42:00,
2013-08-05 05:47:00,69.4,53.6,29.95,NW,304,0.0,2.9,57,0.00,,---,0.00,VWS V12.07,2013-08-05 12:47:00,
2013-08-05 05:52:00,69.0,53.2,29.95,NW,304,0.0,0.0,57,0.00,,---,0.00,VWS V12.07,2013-08-05 12:52:00,
2013-08-05 05:58:00,68.9,53.6,29.95,NW,304,0.0,0.0,58,0.00,,---,0.00,VWS V12.07,2013-08-05 12:58:00,
2013-08-05 06:00:00,68.8,53.5,29.95,NW,304,0.0,0.0,58,0.00,,---,0.00,VWS V12.07,2013-08-05 13:00:00,
2013-08-05 06:02:00,68.7,53.4,29.95,NW,304,0.0,0.0,58,0.00,,---,0.00,VWS V12.07,2013-08-05 13:02:00,
2013-08-05 06:07:00,68.4,53.4,29.95,NW,304,0.0,0.0,59,0.00,,---,0.00,VWS V12.07,2013-08-05 13:07:00,
2013-08-05 06:13:00,68.5,53.4,29.96,NW,304,0.0,0.0,58,0.00,,---,0.00,VWS V12.07,2013-08-05 13:13:00,
2013-08-05 06:18:00,68.4,53.4,29.96,NW,304,0.0,0.0,59,0.00,,---,0.00,VWS V12.07,2013-08-05 13:18:00,
2013-08-05 06:23:00,68.4,53.4,29.96,NW,304,0.0,0.0,59,0.00,,---,0.00,VWS V12.07,2013-08-05 13:23:00,
2013-08-05 06:29:00,69.0,54.1,29.97,NW,304,0.0,0.0,59,0.00,,---,0.00,VWS V12.07,2013-08-05 13:29:00,
2013-08-05 06:30:00,69.0,54.1,29.97,NW,304,0.0,0.0,59,0.00,,---,0.00,VWS V12.07,2013-08-05 13:30:00,
2013-08-05 06:34:00,69.2,54.3,29.97,NW,304,0.0,0.0,59,0.00,,---,0.00,VWS V12.07,2013-08-05 13:34:00,
2013-08-05 06:39:00,69.4,54.0,29.97,West,281,0.0,3.3,58,0.00,,---,0.00,VWS V12.07,2013-08-05 13:39:00,
2013-08-05 06:44:00,69.8,54.3,29.97,West,281,0.0,3.3,58,0.00,,---,0.00,VWS V12.07,2013-08-05 13:44:00,
2013-08-05 06:50:00,70.3,54.6,29.97,West,281,0.0,3.3,58,0.00,,---,0.00,VWS V12.07,2013-08-05 13:50:00,
2013-08-05 07:00:00,71.3,55.0,29.97,West,281,0.0,3.3,56,0.00,,---,0.00,VWS V12.07,2013-08-05 14:00:00,
2013-08-05 07:30:00,74.1,55.2,29.97,NNE,17,0.0,5.2,52,0.00,,---,0.00,VWS V12.07,2013-08-05 14:30:00,
2013-08-05 07:49:00,75.3,55.4,29.97,NNW,330,0.0,0.0,50,0.00,,---,0.00,VWS V12.07,2013-08-05 14:49:00,
2013-08-05 07:53:00,75.7,55.6,29.97,NNW,330,0.0,3.4,50,0.00,,---,0.00,VWS V12.07,2013-08-05 14:53:00,
2013-08-05 07:59:00,76.0,55.8,29.98,NNW,330,0.0,3.4,50,0.00,,---,0.00,VWS V12.07,2013-08-05 14:59:00,
2013-08-05 08:04:00,76.3,55.9,29.97,NNW,330,0.0,3.4,49,0.00,,---,0.00,VWS V12.07,2013-08-05 15:04:00,
2013-08-05 08:09:00,76.6,55.9,29.98,NNW,330,0.0,3.4,49,0.00,,---,0.00,VWS V12.07,2013-08-05 15:09:00,
2013-08-05 08:13:00,76.8,56.1,29.98,NNW,330,0.0,3.4,49,0.00,,---,0.00,VWS V12.07,2013-08-05 15:13:00,
2013-08-05 08:19:00,76.7,55.7,29.98,NNW,330,0.0,3.4,48,0.00,,---,0.00,VWS V12.07,2013-08-05 15:19:00,
2013-08-05 08:24:00,77.0,56.0,29.98,NNW,330,0.0,3.4,48,0.00,,---,0.00,VWS V12.07,2013-08-05 15:24:00,
2013-08-05 08:29:00,77.8,55.9,29.98,NNW,330,0.0,3.4,47,0.00,,---,0.00,VWS V12.07,2013-08-05 15:29:00,
2013-08-05 08:30:00,77.9,56.1,29.98,NNW,330,0.0,0.0,47,0.00,,---,0.00,VWS V12.07,2013-08-05 15:30:00,
2013-08-05 08:34:00,78.4,55.2,29.98,NNW,347,0.0,6.6,45,0.00,,---,0.00,VWS V12.07,2013-08-05 15:34:00,
2013-08-05 08:39:00,79.0,55.2,29.98,NNW,345,2.3,6.6,44,0.00,,---,0.00,VWS V12.07,2013-08-05 15:39:00,
2013-08-05 08:44:00,79.3,55.0,29.98,NNW,345,0.0,6.6,43,0.00,,---,0.00,VWS V12.07,2013-08-05 15:44:00,
2013-08-05 08:49:00,79.7,54.6,29.98,NNW,345,0.0,6.6,42,0.00,,---,0.00,VWS V12.07,2013-08-05 15:49:00,
2013-08-05 08:54:00,80.0,54.9,29.98,East,91,0.0,6.6,42,0.00,,---,0.00,VWS V12.07,2013-08-05 15:54:00,
2013-08-05 09:00:00,80.1,54.5,29.98,NE,52,0.0,6.6,41,0.00,,---,0.00,VWS V12.07,2013-08-05 16:00:00,
2013-08-05 09:05:00,80.3,54.0,29.97,NE,52,0.0,6.6,40,0.00,,---,0.00,VWS V12.07,2013-08-05 16:05:00,
2013-08-05 09:11:00,80.6,54.0,29.97,NE,52,0.0,6.6,40,0.00,,---,0.00,VWS V12.07,2013-08-05 16:11:00,
2013-08-05 09:17:00,81.1,54.1,29.97,NE,52,0.0,6.6,39,0.00,,---,0.00,VWS V12.07,2013-08-05 16:17:00,
2013-08-05 09:22:00,81.8,54.7,29.97,NE,52,0.0,6.6,39,0.00,,---,0.00,VWS V12.07,2013-08-05 16:22:00,
2013-08-05 09:27:00,82.5,54.7,29.97,NE,52,0.0,6.6,38,0.00,,---,0.00,VWS V12.07,2013-08-05 16:27:00,
2013-08-05 09:30:00,82.8,54.9,29.97,NE,52,0.0,2.4,38,0.00,,---,0.00,VWS V12.07,2013-08-05 16:30:00,
2013-08-05 09:32:00,83.3,55.3,29.97,NE,52,0.0,6.6,38,0.00,,---,0.00,VWS V12.07,2013-08-05 16:32:00,
2013-08-05 09:37:00,83.4,54.5,29.97,NE,52,0.0,6.6,37,0.00,,---,0.00,VWS V12.07,2013-08-05 16:37:00,
2013-08-05 09:43:00,83.4,55.2,29.97,NE,52,0.0,6.6,38,0.00,,---,0.00,VWS V12.07,2013-08-05 16:43:00,
2013-08-05 09:48:00,83.8,55.0,29.97,NE,52,0.0,6.6,37,0.00,,---,0.00,VWS V12.07,2013-08-05 16:48:00,
2013-08-05 09:53:00,84.4,55.2,29.97,NE,52,0.0,0.0,37,0.00,,---,0.00,VWS V12.07,2013-08-05 16:53:00,
2013-08-05 09:58:00,84.7,54.5,29.97,NE,52,0.0,0.0,36,0.00,,---,0.00,VWS V12.07,2013-08-05 16:58:00,
2013-08-05 10:00:00,84.5,54.5,29.97,NE,52,0.0,0.0,36,0.00,,---,0.00,VWS V12.07,2013-08-05 17:00:00,
2013-08-05 10:03:00,84.8,54.2,29.98,NE,52,0.0,0.0,35,0.00,,---,0.00,VWS V12.07,2013-08-05 17:03:00,
2013-08-05 10:09:00,84.4,55.3,29.99,SE,128,3.3,8.7,37,0.00,,---,0.00,VWS V12.07,2013-08-05 17:09:00,
2013-08-05 10:14:00,83.4,55.6,29.99,South,176,9.5,11.2,39,0.00,,---,0.00,VWS V12.07,2013-08-05 17:14:00,
2013-08-05 10:19:00,83.8,55.0,29.99,South,172,5.2,13.2,37,0.00,,---,0.00,VWS V12.07,2013-08-05 17:19:00,
2013-08-05 10:24:00,84.3,54.6,29.99,South,179,0.0,13.2,36,0.00,,---,0.00,VWS V12.07,2013-08-05 17:24:00,
2013-08-05 10:29:00,84.7,53.9,29.99,South,191,0.0,13.2,35,0.00,,---,0.00,VWS V12.07,2013-08-05 17:29:00,
2013-08-05 10:30:00,84.7,54.1,29.98,SSE,149,3.2,13.2,35,0.00,,---,0.00,VWS V12.07,2013-08-05 17:30:00,
2013-08-05 10:35:00,84.9,54.0,29.98,ESE,104,0.0,13.2,35,0.00,,---,0.00,VWS V12.07,2013-08-05 17:35:00,
2013-08-05 10:40:00,85.1,54.5,29.98,ESE,103,2.6,13.2,35,0.00,,---,0.00,VWS V12.07,2013-08-05 17:40:00,
2013-08-05 10:45:00,85.1,54.6,29.98,ESE,122,0.0,13.2,35,0.00,,---,0.00,VWS V12.07,2013-08-05 17:45:00,
2013-08-05 10:50:00,85.5,55.1,29.97,SSE,153,0.0,12.6,35,0.00,,---,0.00,VWS V12.07,2013-08-05 17:50:00,
2013-08-05 10:56:00,85.8,55.2,29.97,SSE,165,5.2,12.6,35,0.00,,---,0.00,VWS V12.07,2013-08-05 17:56:00,
2013-08-05 11:01:00,86.5,53.8,29.97,SSE,159,5.6,12.6,33,0.00,,---,0.00,VWS V12.07,2013-08-05 18:01:00,
2013-08-05 11:06:00,87.6,53.0,29.97,South,177,6.8,12.6,31,0.00,,---,0.00,VWS V12.07,2013-08-05 18:06:00,
2013-08-05 11:12:00,89.1,49.8,29.97,SW,226,5.3,16.3,26,0.00,,---,0.00,VWS V12.07,2013-08-05 18:12:00,
2013-08-05 11:17:00,90.0,48.7,29.97,South,187,3.4,16.3,24,0.00,,---,0.00,VWS V12.07,2013-08-05 18:17:00,
2013-08-05 11:22:00,90.4,48.3,29.97,SSW,201,9.7,16.5,24,0.00,,---,0.00,VWS V12.07,2013-08-05 18:22:00,
2013-08-05 11:28:00,90.9,48.2,29.97,SSW,205,6.8,16.5,23,0.00,,---,0.00,VWS V12.07,2013-08-05 18:28:00,
2013-08-05 11:30:00,90.7,48.0,29.97,SSW,205,5.9,16.5,23,0.00,,---,0.00,VWS V12.07,2013-08-05 18:30:00,
2013-08-05 11:33:00,90.7,46.8,29.97,South,177,13.2,16.5,22,0.00,,---,0.00,VWS V12.07,2013-08-05 18:33:00,
2013-08-05 11:38:00,91.0,46.9,29.97,SW,215,2.9,16.5,22,0.00,,---,0.00,VWS V12.07,2013-08-05 18:38:00,
2013-08-05 11:43:00,91.2,45.3,29.97,SSE,163,3.0,16.5,21,0.00,,---,0.00,VWS V12.07,2013-08-05 18:43:00,
2013-08-05 11:48:00,91.7,46.3,29.96,South,174,3.4,16.5,21,0.00,,---,0.00,VWS V12.07,2013-08-05 18:48:00,
2013-08-05 11:53:00,91.9,46.2,29.96,SSW,193,5.5,16.2,21,0.00,,---,0.00,VWS V12.07,2013-08-05 18:53:00,
2013-08-05 11:58:00,91.9,47.3,29.96,SSW,208,2.6,16.2,22,0.00,,---,0.00,VWS V12.07,2013-08-05 18:58:00,
2013-08-05 12:00:00,92.2,47.4,29.96,WSW,255,3.4,16.2,22,0.00,,---,0.00,VWS V12.07,2013-08-05 19:00:00,
2013-08-05 12:04:00,92.4,46.1,29.95,South,186,2.5,16.2,20,0.00,,---,0.00,VWS V12.07,2013-08-05 19:04:00,
2013-08-05 12:09:00,92.3,46.1,29.96,SW,225,0.0,16.2,20,0.00,,---,0.00,VWS V12.07,2013-08-05 19:09:00,
2013-08-05 12:14:00,92.3,45.6,29.95,SW,228,6.8,16.2,20,0.00,,---,0.00,VWS V12.07,2013-08-05 19:14:00,
2013-08-05 12:21:00,92.1,45.7,29.95,SW,236,0.0,16.2,20,0.00,,---,0.00,VWS V12.07,2013-08-05 19:21:00,
2013-08-05 12:26:00,92.3,46.2,29.95,SSW,198,6.6,16.2,21,0.00,,---,0.00,VWS V12.07,2013-08-05 19:26:00,
2013-08-05 12:32:00,91.8,45.7,29.95,SSE,148,4.6,16.4,20,0.00,,---,0.00,VWS V12.07,2013-08-05 19:32:00,
2013-08-05 12:37:00,91.4,46.1,29.95,WSW,246,0.0,16.4,21,0.00,,---,0.00,VWS V12.07,2013-08-05 19:37:00,
2013-08-05 12:42:00,92.0,47.3,29.95,SSE,167,8.3,16.4,22,0.00,,---,0.00,VWS V12.07,2013-08-05 19:42:00,
2013-08-05 12:47:00,92.3,47.0,29.95,SSW,198,4.7,16.4,21,0.00,,---,0.00,VWS V12.07,2013-08-05 19:47:00,
2013-08-05 12:52:00,92.3,47.0,29.95,SSW,204,0.0,11.4,21,0.00,,---,0.00,VWS V12.07,2013-08-05 19:52:00,
2013-08-05 12:57:00,92.7,47.7,29.94,South,172,0.0,12.6,22,0.00,,---,0.00,VWS V12.07,2013-08-05 19:57:00,
2013-08-05 13:00:00,92.4,46.7,29.95,SSW,194,5.2,12.6,21,0.00,,---,0.00,VWS V12.07,2013-08-05 20:00:00,
2013-08-05 13:02:00,92.2,46.9,29.94,SE,128,2.7,12.6,21,0.00,,---,0.00,VWS V12.07,2013-08-05 20:02:00,
2013-08-05 13:08:00,91.3,47.3,29.94,SE,128,0.0,12.6,22,0.00,,---,0.00,VWS V12.07,2013-08-05 20:08:00,
2013-08-05 13:13:00,91.1,47.0,29.94,South,179,2.8,12.6,22,0.00,,---,0.00,VWS V12.07,2013-08-05 20:13:00,
2013-08-05 13:18:00,91.2,47.4,29.93,SSE,162,3.3,12.6,22,0.00,,---,0.00,VWS V12.07,2013-08-05 20:18:00,
2013-08-05 13:23:00,91.2,47.7,29.93,South,187,3.1,12.6,22,0.00,,---,0.00,VWS V12.07,2013-08-05 20:23:00,
2013-08-05 13:28:00,91.4,47.2,29.93,SSE,165,0.0,12.6,22,0.00,,---,0.00,VWS V12.07,2013-08-05 20:28:00,
2013-08-05 13:30:00,91.2,47.1,29.93,SSW,198,3.2,9.9,22,0.00,,---,0.00,VWS V12.07,2013-08-05 20:30:00,
2013-08-05 13:33:00,91.7,47.5,29.93,South,190,7.8,12.6,22,0.00,,---,0.00,VWS V12.07,2013-08-05 20:33:00,
2013-08-05 13:39:00,91.7,47.3,29.93,SE,139,3.0,12.6,22,0.00,,---,0.00,VWS V12.07,2013-08-05 20:39:00,
2013-08-05 13:44:00,91.8,47.7,29.92,SSE,156,0.0,12.6,22,0.00,,---,0.00,VWS V12.07,2013-08-05 20:44:00,
2013-08-05 13:49:00,91.7,45.6,29.92,SSW,194,0.0,11.9,20,0.00,,---,0.00,VWS V12.07,2013-08-05 20:49:00,
2013-08-05 13:54:00,92.0,46.0,29.92,South,176,0.0,11.9,21,0.00,,---,0.00,VWS V12.07,2013-08-05 20:54:00,
2013-08-05 13:59:00,92.7,46.2,29.92,SSW,200,0.0,11.9,20,0.00,,---,0.00,VWS V12.07,2013-08-05 20:59:00,
2013-08-05 14:05:00,92.6,47.3,29.91,East,93,0.0,11.9,21,0.00,,---,0.00,VWS V12.07,2013-08-05 21:05:00,
2013-08-05 14:10:00,93.1,45.9,29.91,SSE,167,2.2,11.9,20,0.00,,---,0.00,VWS V12.07,2013-08-05 21:10:00,
2013-08-05 14:15:00,93.5,46.5,29.91,SSE,159,0.0,11.9,20,0.00,,---,0.00,VWS V12.07,2013-08-05 21:15:00,
2013-08-05 14:20:00,92.9,47.1,29.90,ENE,69,0.0,11.9,21,0.00,,---,0.00,VWS V12.07,2013-08-05 21:20:00,
2013-08-05 14:26:00,93.7,46.5,29.90,East,97,0.0,11.9,20,0.00,,---,0.00,VWS V12.07,2013-08-05 21:26:00,
2013-08-05 14:30:00,93.8,45.6,29.89,SE,146,0.0,9.8,19,0.00,,---,0.00,VWS V12.07,2013-08-05 21:30:00,
2013-08-05 14:31:00,93.4,46.0,29.89,South,170,3.3,11.9,20,0.00,,---,0.00,VWS V12.07,2013-08-05 21:31:00,
2013-08-05 14:36:00,93.8,44.9,29.89,SE,142,0.0,11.9,19,0.00,,---,0.00,VWS V12.07,2013-08-05 21:36:00,
2013-08-05 14:42:00,93.4,45.7,29.89,ENE,58,0.0,11.9,20,0.00,,---,0.00,VWS V12.07,2013-08-05 21:42:00,
2013-08-05 14:47:00,93.7,45.1,29.89,ENE,75,0.0,11.9,19,0.00,,---,0.00,VWS V12.07,2013-08-05 21:47:00,
2013-08-05 14:52:00,94.3,45.0,29.89,ENE,76,4.2,9.1,18,0.00,,---,0.00,VWS V12.07,2013-08-05 21:52:00,
2013-08-05 14:57:00,94.5,44.5,29.89,East,98,0.0,12.5,18,0.00,,---,0.00,VWS V12.07,2013-08-05 21:57:00,
2013-08-05 15:00:00,94.4,44.1,29.88,SE,142,0.0,12.5,18,0.00,,---,0.00,VWS V12.07,2013-08-05 22:00:00,
2013-08-05 15:02:00,94.5,44.2,29.88,East,101,0.0,12.5,18,0.00,,---,0.00,VWS V12.07,2013-08-05 22:02:00,
2013-08-05 15:07:00,94.7,44.1,29.88,ENE,77,3.2,12.5,18,0.00,,---,0.00,VWS V12.07,2013-08-05 22:07:00,
2013-08-05 15:12:00,94.9,44.4,29.88,ENE,58,0.0,12.5,18,0.00,,---,0.00,VWS V12.07,2013-08-05 22:12:00,
2013-08-05 15:17:00,95.1,43.9,29.88,South,173,0.0,12.5,17,0.00,,---,0.00,VWS V12.07,2013-08-05 22:17:00,
2013-08-05 15:23:00,96.0,43.4,29.88,South,174,0.0,13.4,16,0.00,,---,0.00,VWS V12.07,2013-08-05 22:23:00,
2013-08-05 15:28:00,96.3,43.5,29.87,South,191,0.0,13.4,16,0.00,,---,0.00,VWS V12.07,2013-08-05 22:28:00,
2013-08-05 15:33:00,96.7,43.8,29.87,South,181,0.0,13.4,16,0.00,,---,0.00,VWS V12.07,2013-08-05 22:33:00,
2013-08-05 15:38:00,96.1,43.8,29.87,SSE,153,0.0,13.4,17,0.00,,---,0.00,VWS V12.07,2013-08-05 22:38:00,
2013-08-05 15:43:00,95.9,43.8,29.87,SSW,198,0.0,13.4,17,0.00,,---,0.00,VWS V12.07,2013-08-05 22:43:00,
2013-08-05 15:48:00,96.0,44.0,29.87,SE,142,0.0,13.4,17,0.00,,---,0.00,VWS V12.07,2013-08-05 22:48:00,
2013-08-05 15:53:00,95.9,44.3,29.86,ENE,58,0.0,11.6,17,0.00,,---,0.00,VWS V12.07,2013-08-05 22:53:00,
2013-08-05 15:58:00,95.3,44.4,29.86,South,180,3.4,11.6,18,0.00,,---,0.00,VWS V12.07,2013-08-05 22:58:00,
2013-08-05 16:03:00,95.8,43.9,29.86,SSE,160,3.2,11.6,17,0.00,,---,0.00,VWS V12.07,2013-08-05 23:03:00,
2013-08-05 16:09:00,95.9,44.3,29.85,South,172,0.0,11.6,17,0.00,,---,0.00,VWS V12.07,2013-08-05 23:09:00,
2013-08-05 16:14:00,96.1,43.7,29.86,South,187,4.2,11.6,17,0.00,,---,0.00,VWS V12.07,2013-08-05 23:14:00,
2013-08-05 16:19:00,95.2,43.2,29.86,SW,218,3.2,11.6,17,0.00,,---,0.00,VWS V12.07,2013-08-05 23:19:00,
2013-08-05 16:24:00,94.3,45.6,29.86,South,181,8.0,11.6,19,0.00,,---,0.00,VWS V12.07,2013-08-05 23:24:00,
2013-08-05 16:29:00,94.0,45.8,29.86,South,181,7.5,15.7,19,0.00,,---,0.00,VWS V12.07,2013-08-05 23:29:00,
2013-08-05 16:30:00,94.0,45.8,29.86,SSW,207,13.5,15.7,19,0.00,,---,0.00,VWS V12.07,2013-08-05 23:30:00,
2013-08-05 16:34:00,92.7,47.3,29.87,SSE,153,6.5,15.7,21,0.00,,---,0.00,VWS V12.07,2013-08-05 23:34:00,
2013-08-05 16:39:00,91.8,47.3,29.87,SSE,156,5.5,15.7,22,0.00,,---,0.00,VWS V12.07,2013-08-05 23:39:00,
2013-08-05 16:44:00,91.1,46.8,29.86,South,191,8.1,17.1,22,0.00,,---,0.00,VWS V12.07,2013-08-05 23:44:00,
2013-08-05 16:49:00,91.4,46.9,29.86,SSE,153,6.4,17.1,22,0.00,,---,0.00,VWS V12.07,2013-08-05 23:49:00,
2013-08-05 16:54:00,91.4,47.0,29.87,SE,132,2.8,17.1,22,0.00,,---,0.00,VWS V12.07,2013-08-05 23:54:00,
2013-08-05 16:59:00,91.1,47.1,29.87,ESE,120,3.4,17.1,22,0.00,,---,0.00,VWS V12.07,2013-08-05 23:59:00,
2013-08-05 17:00:00,91.1,46.9,29.86,SSE,149,7.1,17.1,22,0.00,,---,0.00,VWS V12.07,2013-08-06 00:00:00,
2013-08-05 17:05:00,90.6,48.0,29.87,SE,134,0.0,17.1,23,0.00,,---,0.00,VWS V12.07,2013-08-06 00:05:00,
2013-08-05 17:10:00,90.3,48.0,29.87,SE,143,5.0,17.1,23,0.00,,---,0.00,VWS V12.07,2013-08-06 00:10:00,
2013-08-05 17:15:00,90.2,48.2,29.87,South,181,0.0,17.1,24,0.00,,---,0.00,VWS V12.07,2013-08-06 00:15:00,
2013-08-05 17:20:00,90.0,48.3,29.87,South,173,0.0,17.1,24,0.00,,---,0.00,VWS V12.07,2013-08-06 00:20:00,
2013-08-05 17:25:00,89.8,48.6,29.87,ESE,105,0.0,17.1,24,0.00,,---,0.00,VWS V12.07,2013-08-06 00:25:00,
2013-08-05 17:30:00,89.4,48.2,29.88,SE,145,3.4,17.1,24,0.00,,---,0.00,VWS V12.07,2013-08-06 00:30:00,
2013-08-05 17:35:00,89.0,49.0,29.88,SE,127,5.2,17.1,25,0.00,,---,0.00,VWS V12.07,2013-08-06 00:35:00,
2013-08-05 17:41:00,88.4,49.5,29.88,East,79,4.5,17.1,26,0.00,,---,0.00,VWS V12.07,2013-08-06 00:41:00,
2013-08-05 17:46:00,88.0,50.2,29.88,NE,55,0.0,17.1,27,0.00,,---,0.00,VWS V12.07,2013-08-06 00:46:00,
2013-08-05 17:51:00,87.8,50.4,29.88,ENE,58,0.0,15.2,28,0.00,,---,0.00,VWS V12.07,2013-08-06 00:51:00,
2013-08-05 17:56:00,87.8,50.5,29.88,ENE,58,0.0,15.2,28,0.00,,---,0.00,VWS V12.07,2013-08-06 00:56:00,
2013-08-05 18:00:00,87.6,50.0,29.88,SSW,201,2.5,15.2,28,0.00,,---,0.00,VWS V12.07,2013-08-06 01:00:00,
2013-08-05 18:01:00,87.7,50.0,29.88,SSW,201,0.0,15.2,27,0.00,,---,0.00,VWS V12.07,2013-08-06 01:01:00,
2013-08-05 18:06:00,87.8,49.8,29.89,ENE,70,0.0,15.2,27,0.00,,---,0.00,VWS V12.07,2013-08-06 01:06:00,
2013-08-05 18:12:00,88.0,49.8,29.89,ESE,112,0.0,15.2,27,0.00,,---,0.00,VWS V12.07,2013-08-06 01:12:00,
2013-08-05 18:17:00,87.8,49.4,29.89,East,91,0.0,15.2,27,0.00,,---,0.00,VWS V12.07,2013-08-06 01:17:00,
2013-08-05 18:22:00,87.6,49.4,29.89,East,82,0.0,15.2,27,0.00,,---,0.00,VWS V12.07,2013-08-06 01:22:00,
2013-08-05 18:27:00,87.0,51.6,29.89,South,183,0.0,15.2,30,0.00,,---,0.00,VWS V12.07,2013-08-06 01:27:00,
2013-08-05 18:30:00,86.9,52.1,29.89,South,187,4.4,9.3,30,0.00,,---,0.00,VWS V12.07,2013-08-06 01:30:00,
2013-08-05 18:33:00,86.1,52.6,29.89,South,172,3.4,15.2,32,0.00,,---,0.00,VWS V12.07,2013-08-06 01:33:00,
2013-08-05 18:38:00,85.7,53.2,29.89,SSE,156,4.2,15.2,33,0.00,,---,0.00,VWS V12.07,2013-08-06 01:38:00,
2013-08-05 18:43:00,84.9,53.0,29.89,South,174,0.0,15.2,34,0.00,,---,0.00,VWS V12.07,2013-08-06 01:43:00,
2013-08-05 18:48:00,84.6,53.0,29.90,SSE,159,5.9,15.2,34,0.00,,---,0.00,VWS V12.07,2013-08-06 01:48:00,
2013-08-05 18:54:00,84.6,52.8,29.90,South,187,0.0,14.2,34,0.00,,---,0.00,VWS V12.07,2013-08-06 01:54:00,
2013-08-05 18:59:00,84.5,52.4,29.90,South,188,3.5,14.2,33,0.00,,---,0.00,VWS V12.07,2013-08-06 01:59:00,
2013-08-05 19:00:00,84.5,52.4,29.90,South,188,3.5,14.2,33,0.00,,---,0.00,VWS V12.07,2013-08-06 02:00:00,
2013-08-05 19:04:00,84.5,51.8,29.90,South,181,7.1,14.2,32,0.00,,---,0.00,VWS V12.07,2013-08-06 02:04:00,
2013-08-05 19:09:00,84.6,51.7,29.90,SSW,208,0.0,14.2,32,0.00,,---,0.00,VWS V12.07,2013-08-06 02:09:00,
2013-08-05 19:15:00,84.7,51.8,29.90,SSW,208,0.0,14.2,32,0.00,,---,0.00,VWS V12.07,2013-08-06 02:15:00,
2013-08-05 19:20:00,84.4,51.7,29.90,SSW,208,0.0,14.2,32,0.00,,---,0.00,VWS V12.07,2013-08-06 02:20:00,
2013-08-05 19:25:00,84.3,52.0,29.90,ESE,108,0.0,14.2,33,0.00,,---,0.00,VWS V12.07,2013-08-06 02:25:00,
2013-08-05 19:30:00,83.9,51.9,29.90,South,169,2.2,14.2,33,0.00,,---,0.00,VWS V12.07,2013-08-06 02:30:00,
2013-08-05 19:41:00,83.7,52.0,29.90,SSW,194,0.0,14.2,34,0.00,,---,0.00,VWS V12.07,2013-08-06 02:41:00,
2013-08-05 19:46:00,83.4,51.8,29.90,SSW,194,0.0,14.2,34,0.00,,---,0.00,VWS V12.07,2013-08-06 02:46:00,
2013-08-05 19:52:00,83.4,52.0,29.90,SSW,194,0.0,6.1,34,0.00,,---,0.00,VWS V12.07,2013-08-06 02:52:00,
2013-08-05 19:59:00,83.1,51.6,29.90,SSE,156,0.0,6.1,34,0.00,,---,0.00,VWS V12.07,2013-08-06 02:59:00,
2013-08-05 20:00:00,83.3,51.8,29.90,SSE,156,0.0,6.1,34,0.00,,---,0.00,VWS V12.07,2013-08-06 03:00:00,
2013-08-05 20:04:00,82.9,51.5,29.90,SSE,156,0.0,6.1,34,0.00,,---,0.00,VWS V12.07,2013-08-06 03:04:00,
2013-08-05 20:09:00,82.8,51.5,29.90,SSE,156,0.0,6.1,34,0.00,,---,0.00,VWS V12.07,2013-08-06 03:09:00,
2013-08-05 20:14:00,82.5,51.5,29.91,SSE,156,0.0,6.1,34,0.00,,---,0.00,VWS V12.07,2013-08-06 03:14:00,
2013-08-05 20:19:00,82.3,51.9,29.91,SSE,156,0.0,6.1,35,0.00,,---,0.00,VWS V12.07,2013-08-06 03:19:00,
2013-08-05 20:25:00,81.8,52.1,29.91,SSE,156,0.0,6.1,36,0.00,,---,0.00,VWS V12.07,2013-08-06 03:25:00,
2013-08-05 20:30:00,81.5,52.5,29.91,SSE,156,0.0,6.1,37,0.00,,---,0.00,VWS V12.07,2013-08-06 03:30:00,
2013-08-05 20:35:00,81.2,52.8,29.91,SSE,156,0.0,6.1,37,0.00,,---,0.00,VWS V12.07,2013-08-06 03:35:00,
2013-08-05 20:40:00,80.7,53.0,29.91,SSE,156,0.0,6.1,38,0.00,,---,0.00,VWS V12.07,2013-08-06 03:40:00,
2013-08-05 20:45:00,80.5,53.2,29.91,SSE,156,0.0,6.1,39,0.00,,---,0.00,VWS V12.07,2013-08-06 03:45:00,
2013-08-05 20:50:00,80.4,53.3,29.91,SSE,156,0.0,0.0,39,0.00,,---,0.00,VWS V12.07,2013-08-06 03:50:00,
2013-08-05 20:55:00,80.3,53.4,29.91,SSE,156,0.0,0.0,39,0.00,,---,0.00,VWS V12.07,2013-08-06 03:55:00,
2013-08-05 21:00:00,80.2,53.3,29.91,SSE,156,0.0,0.0,39,0.00,,---,0.00,VWS V12.07,2013-08-06 04:00:00,
2013-08-05 21:01:00,80.2,53.3,29.91,SSE,156,0.0,0.0,39,0.00,,---,0.00,VWS V12.07,2013-08-06 04:01:00,
2013-08-05 21:06:00,80.0,53.5,29.92,SSE,156,0.0,0.0,40,0.00,,---,0.00,VWS V12.07,2013-08-06 04:06:00,
2013-08-05 21:11:00,79.7,53.7,29.91,SSE,156,0.0,0.0,41,0.00,,---,0.00,VWS V12.07,2013-08-06 04:11:00,
2013-08-05 21:16:00,79.4,53.8,29.91,SSE,156,0.0,0.0,41,0.00,,---,0.00,VWS V12.07,2013-08-06 04:16:00,
2013-08-05 21:21:00,79.2,54.0,29.91,SSE,156,0.0,0.0,42,0.00,,---,0.00,VWS V12.07,2013-08-06 04:21:00,
2013-08-05 21:26:00,79.1,54.1,29.91,SSE,156,0.0,0.0,42,0.00,,---,0.00,VWS V12.07,2013-08-06 04:26:00,
2013-08-05 21:30:00,79.3,54.2,29.91,SSE,156,0.0,0.0,42,0.00,,---,0.00,VWS V12.07,2013-08-06 04:30:00,
2013-08-05 21:31:00,79.1,53.9,29.91,SSE,156,0.0,0.0,42,0.00,,---,0.00,VWS V12.07,2013-08-06 04:31:00,
2013-08-05 21:36:00,79.0,54.0,29.91,SSE,156,0.0,0.0,42,0.00,,---,0.00,VWS V12.07,2013-08-06 04:36:00,
2013-08-05 21:41:00,79.2,54.3,29.91,SSE,156,0.0,0.0,42,0.00,,---,0.00,VWS V12.07,2013-08-06 04:41:00,
2013-08-05 21:46:00,79.1,54.4,29.92,SSE,156,0.0,0.0,42,0.00,,---,0.00,VWS V12.07,2013-08-06 04:46:00,
2013-08-05 21:51:00,79.2,54.7,29.92,SSE,156,0.0,0.0,43,0.00,,---,0.00,VWS V12.07,2013-08-06 04:51:00,
2013-08-05 21:56:00,79.1,54.7,29.92,SSE,156,0.0,0.0,43,0.00,,---,0.00,VWS V12.07,2013-08-06 04:56:00,
2013-08-05 22:00:00,79.1,54.8,29.92,SSE,156,0.0,0.0,43,0.00,,---,0.00,VWS V12.07,2013-08-06 05:00:00,
2013-08-05 22:01:00,79.0,54.7,29.92,SSE,156,0.0,0.0,43,0.00,,---,0.00,VWS V12.07,2013-08-06 05:01:00,
2013-08-05 22:06:00,79.0,54.8,29.92,SSE,156,0.0,0.0,43,0.00,,---,0.00,VWS V12.07,2013-08-06 05:06:00,
2013-08-05 22:11:00,78.8,54.8,29.92,SSE,156,0.0,0.0,44,0.00,,---,0.00,VWS V12.07,2013-08-06 05:11:00,
2013-08-05 22:16:00,78.7,54.8,29.92,SSE,156,0.0,0.0,44,0.00,,---,0.00,VWS V12.07,2013-08-06 05:16:00,
2013-08-05 22:21:00,78.5,54.9,29.92,SSE,156,0.0,0.0,44,0.00,,---,0.00,VWS V12.07,2013-08-06 05:21:00,
2013-08-05 22:26:00,78.7,55.3,29.92,SSE,156,0.0,0.0,44,0.00,,---,0.00,VWS V12.07,2013-08-06 05:26:00,
2013-08-05 22:30:00,78.3,55.0,29.92,SSE,156,0.0,0.0,45,0.00,,---,0.00,VWS V12.07,2013-08-06 05:30:00,
2013-08-05 22:31:00,78.3,55.0,29.92,SSE,156,0.0,0.0,45,0.00,,---,0.00,VWS V12.07,2013-08-06 05:31:00,
2013-08-05 22:36:00,78.3,55.4,29.92,SSE,156,0.0,0.0,45,0.00,,---,0.00,VWS V12.07,2013-08-06 05:36:00,
2013-08-05 22:41:00,78.2,55.3,29.92,SSE,156,0.0,0.0,45,0.00,,---,0.00,VWS V12.07,2013-08-06 05:41:00,
2013-08-05 22:46:00,78.2,55.3,29.92,SSE,156,0.0,0.0,45,0.00,,---,0.00,VWS V12.07,2013-08-06 05:46:00,
2013-08-05 22:51:00,78.4,55.4,29.92,SSE,156,0.0,0.0,45,0.00,,---,0.00,VWS V12.07,2013-08-06 05:51:00,
2013-08-05 22:56:00,78.2,55.3,29.91,SSE,156,0.0,0.0,45,0.00,,---,0.00,VWS V12.07,2013-08-06 05:56:00,
2013-08-05 23:00:00,78.2,55.1,29.91,SSE,156,0.0,0.0,45,0.00,,---,0.00,VWS V12.07,2013-08-06 06:00:00,
2013-08-05 23:01:00,78.0,54.7,29.91,SSE,156,0.0,0.0,45,0.00,,---,0.00,VWS V12.07,2013-08-06 06:01:00,
2013-08-05 23:06:00,78.5,54.9,29.91,SSE,156,0.0,0.0,44,0.00,,---,0.00,VWS V12.07,2013-08-06 06:06:00,
2013-08-05 23:11:00,78.4,54.7,29.92,SSE,156,0.0,0.0,44,0.00,,---,0.00,VWS V12.07,2013-08-06 06:11:00,
2013-08-05 23:16:00,78.7,54.7,29.92,SSE,156,0.0,0.0,44,0.00,,---,0.00,VWS V12.07,2013-08-06 06:16:00,
2013-08-05 23:21:00,78.8,54.7,29.92,SSE,156,0.0,0.0,43,0.00,,---,0.00,VWS V12.07,2013-08-06 06:21:00,
2013-08-05 23:26:00,78.8,54.4,29.91,SSE,156,0.0,0.0,43,0.00,,---,0.00,VWS V12.07,2013-08-06 06:26:00,
2013-08-05 23:30:00,78.8,54.5,29.92,SSE,156,0.0,0.0,43,0.00,,---,0.00,VWS V12.07,2013-08-06 06:30:00,
2013-08-05 23:31:00,78.8,54.4,29.91,SSE,156,0.0,0.0,43,0.00,,---,0.00,VWS V12.07,2013-08-06 06:31:00,
2013-08-05 23:36:00,78.7,54.7,29.91,SSE,156,0.0,0.0,44,0.00,,---,0.00,VWS V12.07,2013-08-06 06:36:00,
2013-08-05 23:41:00,78.7,55.0,29.91,SSE,156,0.0,0.0,44,0.00,,---,0.00,VWS V12.07,2013-08-06 06:41:00,
2013-08-05 23:46:00,78.2,54.8,29.91,SSE,156,0.0,0.0,44,0.00,,---,0.00,VWS V12.07,2013-08-06 06:46:00,
2013-08-05 23:51:00,78.1,54.5,29.91,SSE,156,0.0,0.0,44,0.00,,---,0.00,VWS V12.07,2013-08-06 06:51:00,
2013-08-05 23:56:00,78.1,54.2,29.91,NE,48,0.0,2.6,44,0.00,,---,0.00,VWS V12.07,2013-08-06 06:56:00,